Stations météo

Publicité
Lorient Lan Bihoue, France (7205): Température de l'air & dewpoint: 11.12.2017 03:00:00 - 17.12.2017 03:00:00 (CET)Lorient Lan Bihoue, France (7205): Température de l'air 5cm: 11.12.2017 03:00:00 - 17.12.2017 03:00:00 (CET)Lorient Lan Bihoue, France (7205): Température de l'air -20cm: 11.12.2017 03:00:00 - 17.12.2017 03:00:00 (CET)Lorient Lan Bihoue, France (7205): Vitesse du vent & gusts: 11.12.2017 03:00:00 - 17.12.2017 03:00:00 (CET)Lorient Lan Bihoue, France (7205): Direction du vent: 11.12.2017 03:00:00 - 17.12.2017 03:00:00 (CET)Lorient Lan Bihoue, France (7205): reduced air pressure: 11.12.2017 03:00:00 - 17.12.2017 03:00:00 (CET)Lorient Lan Bihoue, France (7205): visibility: 11.12.2017 03:00:00 - 17.12.2017 03:00:00 (CET)Lorient Lan Bihoue, France (7205): Ensoleillement: 11.12.2017 03:00:00 - 17.12.2017 03:00:00 (CET)Lorient Lan Bihoue, France (7205): Quantités de précipitations: 11.12.2017 03:00:00 - 17.12.2017 03:00:00 (CET)
Date & Time tt [°C] td [°C] tt 5cm [°C] tt -20cm [°C] ff [km/h] ff [knt] fx [km/h] fx [knt] dd ppp [hPa] vv [km] sd [min] rr [mm]
17.12.2017 03:00:00 - - - - - - - - - - - - -
17.12.2017 02:00:00 7,1 4,2 5,9 7,3 15 8 24 13 WNW 1027,7 10 0 0,0
17.12.2017 01:00:00 6,9 3,9 5,5 7,3 15 8 24 13 WNW 1028,0 42 0 0,0
17.12.2017 00:00:00 6,5 3,3 4,3 7,3 14 7 21 11 WNW 1028,2 43 0 0,0
16.12.2017 23:00:00 6,1 2,7 4,4 7,3 10 5 19 10 W 1028,0 46 0 0,0
16.12.2017 22:00:00 5,3 2,1 3,0 7,4 11 6 16 9 WNW 1028,2 33 0 0,0
16.12.2017 21:00:00 3,8 1,5 2,6 7,4 6 3 11 6 W 1027,8 25 0 0,0
16.12.2017 20:00:00 3,4 1,4 0,2 7,4 9 5 12 7 WNW 1027,5 19 0 0,0
16.12.2017 19:00:00 2,6 -0,5 0,1 7,4 8 5 11 6 W 1027,2 33 0 0,0
16.12.2017 18:00:00 4,6 0,5 1,0 7,4 5 3 14 8 W 1026,3 42 1 0,0
16.12.2017 17:00:00 6,4 1,7 5,2 7,4 7 4 16 9 N 1025,5 50 19 0,0
16.12.2017 16:00:00 8,6 2,8 10,2 7,3 6 4 22 12 NNW 1024,7 57 60 0,0
16.12.2017 15:00:00 8,0 3,5 6,8 7,3 7 4 29 15 N 1024,2 57 17 0,0
16.12.2017 14:00:00 9,1 3,3 7,7 7,3 15 8 23 12 N 1024,0 19 47 0,0
16.12.2017 13:00:00 7,6 2,9 7,9 7,2 11 6 22 12 NNW 1023,7 10 49 0,0
16.12.2017 12:00:00 7,2 3,2 8,5 7,3 7 4 12 7 NW 1023,7 56 60 0,0
16.12.2017 11:00:00 5,9 2,7 5,5 7,4 6 3 15 8 NNW 1023,2 57 58 0,0
16.12.2017 10:00:00 4,1 1,8 1,1 7,4 9 5 20 11 N 1022,1 57 34 0,0
16.12.2017 09:00:00 2,7 1,1 -0,2 7,5 10 5 19 11 NNW 1021,0 58 0 0,0
16.12.2017 08:00:00 1,8 0,2 -0,6 7,5 8 4 14 7 NNW 1020,3 55 0 0,0
16.12.2017 07:00:00 1,7 0,2 -0,3 7,6 8 4 14 8 NW 1019,4 10 0 0,0
16.12.2017 06:00:00 1,9 0,9 -0,7 7,6 9 5 15 8 NW 1018,8 10 0 0,0
16.12.2017 05:00:00 2,1 0,9 0,2 7,7 9 5 16 9 W 1018,3 10 0 0,0
16.12.2017 04:00:00 2,9 1,9 -0,3 7,7 13 7 17 9 NW 1017,7 49 0 0,0
16.12.2017 03:00:00 1,4 0,7 0,1 7,8 11 6 16 9 W 1016,8 19 0 0,0
16.12.2017 02:00:00 3,2 1,7 0,5 7,8 6 3 14 8 WNW 1016,1 47 0 0,0
16.12.2017 01:00:00 3,3 2,0 1,3 7,8 8 4 13 7 NW 1015,4 10 0 0,0
16.12.2017 00:00:00 3,7 2,5 1,3 7,9 9 5 14 8 NW 1014,7 46 0 0,0
15.12.2017 23:00:00 4,2 2,2 2,7 7,9 9 5 19 10 WNW 1013,8 10 0 0,0
15.12.2017 22:00:00 5,2 3,2 3,6 7,9 10 6 18 10 NNW 1012,9 53 0 0,0
15.12.2017 21:00:00 5,5 3,7 3,9 8,0 10 5 26 14 NNW 1011,9 51 0 0,0
15.12.2017 20:00:00 5,3 3,6 2,9 8,0 11 6 16 9 NW 1011,0 10 0 0,0
15.12.2017 19:00:00 4,8 3,0 2,8 8,0 9 5 16 9 WNW 1010,0 42 0 0,0
15.12.2017 18:00:00 5,8 3,0 4,2 7,9 9 5 29 16 NW 1009,1 56 0 0,0
15.12.2017 17:00:00 7,5 3,2 6,7 7,9 18 10 36 19 NNW 1008,2 55 51 0,0
15.12.2017 16:00:00 8,4 3,6 8,3 7,9 20 11 43 23 NNW 1007,0 45 58 0,0
15.12.2017 15:00:00 8,9 4,1 8,0 7,8 21 11 39 21 NNW 1006,3 57 48 0,0
15.12.2017 14:00:00 8,4 4,8 6,4 7,9 17 9 58 31 NNW 1005,6 45 33 0,0
15.12.2017 13:00:00 9,2 4,8 7,0 7,8 25 14 44 24 NNW 1005,0 20 44 0,0
15.12.2017 12:00:00 8,2 4,8 8,0 7,8 27 15 49 27 NW 1004,8 19 23 0,0
15.12.2017 11:00:00 8,5 5,2 7,2 7,8 23 12 39 21 NW 1004,3 13 58 0,0
15.12.2017 10:00:00 6,4 4,9 3,6 7,9 15 8 25 14 WNW 1003,3 20 39 0,0
15.12.2017 09:00:00 5,0 3,8 3,2 7,9 11 6 21 12 W 1002,8 42 0 0,0
15.12.2017 08:00:00 6,3 4,1 4,9 7,9 15 8 30 16 W 1002,3 10 0 0,0
15.12.2017 07:00:00 6,4 3,9 3,6 8,0 16 9 31 17 WNW 1002,0 19 0 0,0
15.12.2017 06:00:00 5,8 3,6 2,7 8,0 15 8 35 19 WNW 1002,0 46 0 0,0
15.12.2017 05:00:00 5,2 3,4 3,3 8,0 14 8 42 23 W 1002,2 46 0 0,2
15.12.2017 04:00:00 5,7 3,4 3,8 8,1 16 9 36 20 WNW 1002,5 10 0 0,2
15.12.2017 03:00:00 6,1 4,4 4,1 8,1 22 12 53 29 WNW 1002,7 7 0 0,8
15.12.2017 02:00:00 5,9 3,4 4,5 8,2 9 5 34 19 NW 1002,5 10 0 0,0
15.12.2017 01:00:00 6,4 3,5 3,5 8,2 16 9 28 15 WNW 1002,0 10 0 0,0
15.12.2017 00:00:00 6,1 3,6 4,6 8,2 15 8 46 25 WNW 1001,8 10 0 0,0
14.12.2017 23:00:00 6,9 4,0 3,8 8,3 22 12 50 27 WNW 1001,2 10 0 0,0
14.12.2017 22:00:00 4,9 3,2 4,1 8,4 16 8 66 35 W 1000,5 50 0 -
14.12.2017 21:00:00 6,9 2,4 3,5 8,4 23 12 37 20 W 1000,6 19 0 0,0
14.12.2017 20:00:00 5,5 2,7 2,9 8,4 18 10 29 16 WNW 1000,5 20 0 0,0
14.12.2017 19:00:00 5,3 3,1 3,8 8,5 14 8 78 42 WNW 1000,6 20 0 0,4
14.12.2017 18:00:00 7,1 3,9 4,5 8,5 31 17 53 29 W 1000,0 34 0 0,0
14.12.2017 17:00:00 5,4 3,2 4,3 8,5 18 10 64 35 WNW 1000,0 60 0 2,0
14.12.2017 16:00:00 8,2 4,2 6,9 8,5 35 19 62 34 W 999,8 10 2 0,2
14.12.2017 15:00:00 7,5 5,1 7,0 8,5 22 12 48 26 W 1000,8 30 0 -
14.12.2017 14:00:00 8,2 6,3 7,4 8,5 34 18 69 37 W 1001,8 7 0 -
14.12.2017 13:00:00 8,0 5,8 7,2 8,5 21 11 46 25 WNW 1002,9 45 2 0,2
14.12.2017 12:00:00 8,4 6,2 6,8 8,5 26 14 43 23 W 1004,0 15 4 -
14.12.2017 11:00:00 7,7 5,8 6,6 8,6 22 12 44 24 W 1004,7 10 0 1,6
14.12.2017 10:00:00 7,6 6,1 6,4 8,6 18 10 36 19 W 1005,3 18 0 0,6
14.12.2017 09:00:00 7,3 5,6 6,3 8,6 24 13 66 35 WNW 1006,1 6 0 1,4
14.12.2017 08:00:00 7,4 4,9 6,4 8,7 29 16 59 32 WNW 1006,2 9 0 1,2
14.12.2017 07:00:00 9,1 5,3 6,1 8,7 32 17 49 26 W 1006,3 15 0 0,2
14.12.2017 06:00:00 7,4 4,4 4,9 8,7 18 10 44 24 W 1007,5 10 0 0,0
14.12.2017 05:00:00 7,6 3,6 5,7 8,8 21 11 40 22 W 1008,0 10 0 0,0
14.12.2017 04:00:00 7,3 3,2 5,0 8,8 31 17 62 34 W 1008,7 30 0 0,0
14.12.2017 03:00:00 7,0 3,1 4,5 8,8 18 10 29 15 WNW 1008,6 10 0 0,0
14.12.2017 02:00:00 7,2 3,4 5,5 8,9 11 6 29 15 WNW 1008,5 10 0 0,0
14.12.2017 01:00:00 7,8 4,4 6,4 8,9 17 9 36 20 WNW 1008,3 15 0 0,0
14.12.2017 00:00:00 8,2 5,1 7,0 8,9 24 13 48 26 WNW 1008,1 10 0 0,0
13.12.2017 23:00:00 8,8 6,6 7,7 8,9 29 15 74 40 WNW 1007,2 19 0 1,2
13.12.2017 22:00:00 10,5 5,9 8,4 8,9 43 23 76 41 W 1006,3 12 0 0,0
13.12.2017 21:00:00 10,0 4,8 8,4 8,9 33 18 55 30 W 1006,0 16 0 0,0
13.12.2017 20:00:00 9,8 6,1 8,4 8,9 27 14 54 29 W 1005,9 15 0 0,0
13.12.2017 19:00:00 10,1 6,8 9,1 8,8 24 13 48 26 WNW 1005,2 46 0 0,0
13.12.2017 18:00:00 10,5 8,4 9,7 8,7 24 13 52 28 WNW 1004,8 10 0 0,0
13.12.2017 17:00:00 11,5 9,7 10,9 8,6 24 13 58 32 WNW 1003,9 10 0 0,0
13.12.2017 16:00:00 12,6 12,3 12,3 8,6 29 16 59 32 W 1001,6 10 0 0,0
13.12.2017 15:00:00 12,4 12,2 11,1 8,5 41 22 60 32 WSW 1001,3 5 0 0,4
13.12.2017 14:00:00 11,2 11,0 10,4 8,4 26 14 48 26 SSW 1003,1 1,6 0 2,2
13.12.2017 13:00:00 10,6 10,3 9,8 8,4 31 17 46 25 SW 1006,0 1,8 0 1,2
13.12.2017 12:00:00 10,5 9,4 9,7 8,3 29 16 49 26 WSW 1007,9 2,1 0 0,4
13.12.2017 11:00:00 10,3 9,2 8,9 8,3 24 13 52 28 WSW 1009,1 12 0 0,8
13.12.2017 10:00:00 10,7 7,9 9,8 8,2 23 12 44 24 WSW 1009,7 16 0 0,0
13.12.2017 09:00:00 10,3 8,7 9,2 8,2 17 9 32 17 WSW 1010,2 10 0 0,0
13.12.2017 08:00:00 10,0 8,3 8,8 8,2 22 12 39 21 W 1010,8 13 0 0,0
13.12.2017 07:00:00 9,8 7,4 8,4 8,1 21 11 32 17 W 1010,5 16 0 0,0
13.12.2017 06:00:00 9,3 7,6 8,1 8,1 14 8 22 12 W 1010,2 11 0 0,0
13.12.2017 05:00:00 9,0 7,9 8,0 8,0 13 7 21 11 W 1010,1 10 0 0,0
13.12.2017 04:00:00 9,7 8,3 9,0 7,9 13 7 60 33 WNW 1010,5 10 0 1,4
13.12.2017 03:00:00 11,4 11,2 10,5 7,8 32 18 53 29 SW 1009,8 1,9 0 0,6
13.12.2017 02:00:00 10,7 10,5 9,7 7,8 30 16 49 26 SW 1010,4 2,0 0 0,8
13.12.2017 01:00:00 10,1 9,6 9,2 7,7 29 16 50 27 SW 1011,6 3,5 0 0,2
13.12.2017 00:00:00 9,6 9,1 8,6 7,7 23 13 48 26 SW 1012,2 9 0 0,2
12.12.2017 23:00:00 10,4 6,9 9,6 7,6 28 15 45 24 SW 1013,2 49 0 0,0
12.12.2017 22:00:00 10,3 6,4 8,5 7,6 22 12 34 18 SW 1013,8 50 0 0,0
12.12.2017 21:00:00 9,8 5,6 8,1 7,6 21 11 32 17 SW 1014,1 52 0 0,0
12.12.2017 20:00:00 9,5 4,7 8,1 7,6 22 12 33 18 WSW 1014,7 10 0 0,0
12.12.2017 19:00:00 9,1 3,7 7,7 7,5 20 11 31 17 WSW 1014,1 57 0 0,0
12.12.2017 18:00:00 8,7 3,1 7,2 7,5 18 10 29 15 WSW 1013,5 10 0 0,0
12.12.2017 17:00:00 8,6 3,0 7,5 7,5 19 10 28 15 W 1014,4 55 0 0,0
12.12.2017 16:00:00 8,8 4,6 7,4 7,4 12 7 23 12 WSW 1014,0 51 0 0,0
12.12.2017 15:00:00 9,5 4,5 9,9 7,3 10 5 21 11 WSW 1014,1 54 30 0,0
12.12.2017 14:00:00 10,3 5,3 10,9 7,3 10 5 15 8 WSW 1013,6 20 49 0,0
12.12.2017 13:00:00 9,6 5,0 9,0 7,3 8 5 14 8 W 1013,7 18 37 0,0
12.12.2017 12:00:00 8,2 4,6 8,4 7,4 6 3 9 5 SE 1014,3 20 60 0,0
12.12.2017 11:00:00 5,2 3,5 3,6 7,5 4 2 9 5 NW 1013,3 54 60 0,0
12.12.2017 10:00:00 1,9 1,2 -1,8 7,5 4 2 8 4 WNW 1013,0 45 23 0,0
12.12.2017 09:00:00 0,6 0,3 -2,7 7,6 7 4 9 5 WNW 1012,0 39 0 0,0
12.12.2017 08:00:00 0,9 0,5 -2,6 7,6 5 3 11 6 NW 1011,1 10 0 0,0
12.12.2017 07:00:00 0,9 0,0 -2,1 7,7 6 4 11 6 NW 1010,3 59 0 0,0
12.12.2017 06:00:00 1,4 0,5 -1,4 7,8 4 2 11 6 WNW 1009,1 50 0 0,0
12.12.2017 05:00:00 2,0 0,4 -1,9 7,9 9 5 16 9 WNW 1008,4 55 0 0,0
12.12.2017 04:00:00 1,7 -0,2 -1,2 7,9 4 2 16 9 WNW 1007,9 40 0 0,0
12.12.2017 03:00:00 0,7 -0,9 -2,3 8,0 9 5 13 7 WNW 1006,6 39 0 0,0
12.12.2017 02:00:00 -0,2 -1,3 -2,6 8,1 6 4 8 4 WNW 1005,4 27 0 0,0
12.12.2017 01:00:00 -0,1 -2,2 -2,8 8,1 3 2 13 7 W 1005,1 37 0 0,0
12.12.2017 00:00:00 0,5 -1,4 -2,1 8,2 6 3 12 7 NW 1004,1 38 0 0,0
11.12.2017 23:00:00 0,2 -1,1 -1,6 8,3 6 4 11 6 WNW 1003,8 37 0 0,0
11.12.2017 22:00:00 0,7 -0,8 -0,6 8,3 8 4 16 8 W 1002,5 37 0 0,0
11.12.2017 21:00:00 2,3 -0,1 0,5 8,4 11 6 17 9 WNW 1000,4 10 0 0,0
11.12.2017 20:00:00 3,0 0,7 1,2 8,4 9 5 24 13 WNW 998,7 10 0 0,0
11.12.2017 19:00:00 4,3 2,2 2,6 8,4 13 7 23 12 NNW 996,7 10 0 0,0
11.12.2017 18:00:00 4,4 2,9 3,5 8,4 9 5 33 18 NNW 994,6 17 0 0,0
11.12.2017 17:00:00 4,5 2,7 3,7 8,5 20 11 38 20 N 992,5 20 0 0,0
11.12.2017 16:00:00 5,3 3,3 4,8 8,5 21 11 41 22 NNW 990,5 57 0 0,0
11.12.2017 15:00:00 6,1 3,4 5,6 8,5 22 12 46 25 N 988,4 10 0 0,0
11.12.2017 14:00:00 6,6 3,9 6,9 8,5 21 11 44 24 NNW 986,3 10 0 0,0
11.12.2017 13:00:00 7,0 4,1 6,9 8,5 26 14 42 23 NNW 984,2 53 2 0,0
11.12.2017 12:00:00 6,7 4,2 6,9 8,6 23 13 46 25 NNW 982,3 60 0 0,0
11.12.2017 11:00:00 6,8 4,6 5,5 8,6 16 9 43 23 NNW 980,2 10 3 0,0
11.12.2017 10:00:00 5,7 4,2 4,6 8,7 18 10 41 22 NW 978,3 10 0 0,2
11.12.2017 09:00:00 5,1 3,8 4,1 8,8 25 14 49 26 NW 976,1 15 0 0,8
11.12.2017 08:00:00 4,5 3,5 4,0 8,8 29 16 59 32 WNW 973,1 11 0 1,0
11.12.2017 07:00:00 4,7 3,0 4,0 8,9 31 17 59 32 NW 969,4 10 0 0,0
11.12.2017 06:00:00 4,7 3,0 4,2 8,9 29 16 69 37 N 965,5 10 0 -
11.12.2017 05:00:00 5,0 4,1 4,6 9,0 35 19 61 33 N 963,1 4,1 0 5,5
11.12.2017 04:00:00 6,5 5,6 6,0 9,0 35 19 59 32 NNE 962,1 9 0 4,4
11.12.2017 03:00:00 7,6 6,7 7,2 9,1 10 5 44 24 N 963,8 57 0 7,7

tt = Température de l'air
td = dewpoint
tt 5cm = Température de l'air 5cm
tt -20cm = Température de l'air -20cm
ff = Vitesse du vent
fx = gusts
dd = Direction du vent
ppp = reduced air pressure
vv = visibility
sd = Ensoleillement
rr = Quantités de précipitations

stations d'obs. à proximité